Location: Navalespino
(40.5894°N, 4.2660°W)
Time: 16:18:50
(UTC+00:00)

CZ-4B R/B - Pass Details

Date: 18 April 2024
Orbit: 465 x 616 km, 97.9° (Epoch: 24 May)

Event Time Altitude Azimuth Distance (km) Brightness Sun altitude
Rises 19:39:43 0° 177° (S) 2,619 6.0 -8.0°
Reaches altitude 10° 19:41:53 10° 182° (S) 1,713 5.1 -8.4°
Maximum altitude 19:45:27 52° 259° (W) 618 3.5 -9.0°
Drops below altitude 10° 19:48:57 10° 337° (NNW) 1,661 6.0 -9.6°
Sets 19:51:01 0° 343° (NNW) 2,530 6.9 -9.9°
